N2854L DAOO-EDDS

Flight info

Callsign N2854L
Flight time 2h 30m
Altitude 36000
Route SID74 LABRO L129 PIDUD/N0457F380 L129 MJV DCT OSPOK DCT RUBAS DCT NOSTA DCT ABESI N851 LEBSO DCT REUTL REUTL5A
Aircraft B736/M-SDE2E3FGHIRWXY/LB1

Departure

Time 2026-04-16 21:59
Airport Oran Es-Sénia (Ahmed Ben Bella) International Airport (DAOO)

Arrival

Time 2026-04-17 00:29
Airport Stuttgart Airport (EDDS)
Time Latitude Longitude Altitude Speed Heading
2026-04-16 21:35 35.61897 -0.61177 308 ft 0 kts 132°
2026-04-16 21:49 35.61911 -0.61196 308 ft 4 kts 135°
2026-04-16 21:49 35.61931 -0.61218 309 ft 4 kts 142°
2026-04-16 21:49 35.61954 -0.61235 307 ft 4 kts 166°
2026-04-16 21:49 35.61973 -0.61234 307 ft 1 kts 222°
2026-04-16 21:51 35.61969 -0.61239 307 ft 2 kts 222°
2026-04-16 21:51 35.61944 -0.61264 307 ft 7 kts 220°
2026-04-16 21:52 35.61934 -0.61327 307 ft 10 kts 307°
2026-04-16 21:52 35.62002 -0.61374 309 ft 13 kts 346°
2026-04-16 21:52 35.62072 -0.61306 309 ft 15 kts 66°
2026-04-16 21:52 35.62117 -0.61174 309 ft 18 kts 68°
2026-04-16 21:53 35.62165 -0.61025 309 ft 20 kts 64°
2026-04-16 21:53 35.62225 -0.60858 308 ft 22 kts 67°
2026-04-16 21:53 35.62260 -0.60731 309 ft 16 kts 93°
2026-04-16 21:53 35.62179 -0.60701 309 ft 17 kts 238°
2026-04-16 21:54 35.62127 -0.60845 308 ft 20 kts 246°
2026-04-16 21:54 35.62070 -0.61016 308 ft 23 kts 248°
2026-04-16 21:54 35.62005 -0.61204 309 ft 23 kts 249°
2026-04-16 21:54 35.61999 -0.61370 308 ft 16 kts 323°
2026-04-16 21:55 35.62004 -0.61505 309 ft 19 kts 249°
2026-04-16 21:55 35.61950 -0.61662 309 ft 21 kts 247°
2026-04-16 21:55 35.61888 -0.61842 309 ft 24 kts 247°
2026-04-16 21:55 35.61823 -0.62033 308 ft 23 kts 247°
2026-04-16 21:56 35.61762 -0.62213 309 ft 23 kts 247°
2026-04-16 21:56 35.61702 -0.62388 309 ft 22 kts 247°
2026-04-16 21:56 35.61644 -0.62559 309 ft 22 kts 247°
2026-04-16 21:56 35.61576 -0.62756 308 ft 28 kts 247°
2026-04-16 21:57 35.61492 -0.62995 308 ft 33 kts 246°
2026-04-16 21:57 35.61398 -0.63269 309 ft 37 kts 249°
2026-04-16 21:57 35.61321 -0.63496 309 ft 27 kts 246°
2026-04-16 21:57 35.61250 -0.63703 308 ft 25 kts 247°
2026-04-16 21:58 35.61221 -0.63903 308 ft 24 kts 287°
2026-04-16 21:58 35.61336 -0.64022 309 ft 23 kts 332°
2026-04-16 21:58 35.61477 -0.64101 308 ft 22 kts 338°
2026-04-16 21:58 35.61617 -0.64166 309 ft 21 kts 355°
2026-04-16 21:59 35.61716 -0.64055 309 ft 22 kts 67°
2026-04-16 21:59 35.61873 -0.63599 309 ft 102 kts 67°
2026-04-16 21:59 35.62246 -0.62498 355 ft 171 kts 68°
2026-04-16 21:59 35.62728 -0.61030 1002 ft 196 kts 68°
2026-04-16 22:00 35.63263 -0.59471 2094 ft 191 kts 67°
2026-04-16 22:00 35.63777 -0.57977 3166 ft 196 kts 67°
2026-04-16 22:00 35.64348 -0.56309 3548 ft 228 kts 66°
2026-04-16 22:00 35.65009 -0.54369 3956 ft 259 kts 66°
2026-04-16 22:01 35.65769 -0.52342 5016 ft 262 kts 56°
2026-04-16 22:01 35.67030 -0.50730 6121 ft 264 kts 37°
2026-04-16 22:01 35.68645 -0.49636 7105 ft 269 kts 18°
2026-04-16 22:01 35.70475 -0.49108 8096 ft 272 kts 11°
2026-04-16 22:02 35.72327 -0.48676 9087 ft 276 kts 11°
2026-04-16 22:02 35.74258 -0.48245 10084 ft 280 kts 10°
2026-04-16 22:02 35.76208 -0.47813 10795 ft 294 kts 10°
2026-04-16 22:02 35.78318 -0.47344 11057 ft 321 kts 10°
2026-04-16 22:03 35.80517 -0.46841 11735 ft 330 kts 13°
2026-04-16 22:03 35.82632 -0.45750 12611 ft 333 kts 33°
2026-04-16 22:03 35.84444 -0.43952 13543 ft 336 kts 40°
2026-04-16 22:03 35.86211 -0.41982 14352 ft 341 kts 41°
2026-04-16 22:04 35.87939 -0.40010 15102 ft 345 kts 41°
2026-04-16 22:04 35.89708 -0.37990 15894 ft 348 kts 41°
2026-04-16 22:04 35.91498 -0.35955 16673 ft 352 kts 41°
2026-04-16 22:04 35.93312 -0.33903 17439 ft 356 kts 41°
2026-04-16 22:05 35.95149 -0.31835 18205 ft 360 kts 41°
2026-04-16 22:05 35.97016 -0.29736 18901 ft 364 kts 41°
2026-04-16 22:05 35.98896 -0.27626 19576 ft 368 kts 41°
2026-04-16 22:05 36.00803 -0.25485 20245 ft 371 kts 41°
2026-04-16 22:06 36.02721 -0.23332 20895 ft 375 kts 41°
2026-04-16 22:06 36.06620 -0.18951 22201 ft 383 kts 41°
2026-04-16 22:06 36.08603 -0.16720 22842 ft 387 kts 41°
2026-04-16 22:07 36.10601 -0.14472 23476 ft 391 kts 41°
2026-04-16 22:07 36.12623 -0.12195 24045 ft 395 kts 41°
2026-04-16 22:07 36.14657 -0.09902 24594 ft 398 kts 41°
2026-04-16 22:07 36.16707 -0.07590 25152 ft 400 kts 41°
2026-04-16 22:08 36.18773 -0.05257 25696 ft 403 kts 41°
2026-04-16 22:08 36.20826 -0.02937 26217 ft 406 kts 41°
2026-04-16 22:08 36.22920 -0.00570 26740 ft 409 kts 41°
2026-04-16 22:08 36.25059 0.01852 27302 ft 411 kts 41°
2026-04-16 22:09 36.27148 0.04217 27798 ft 414 kts 41°
2026-04-16 22:09 36.29283 0.06632 28270 ft 418 kts 40°
2026-04-16 22:09 36.31511 0.08966 28747 ft 420 kts 37°
2026-04-16 22:09 36.33831 0.11186 29199 ft 423 kts 35°
2026-04-16 22:10 36.36199 0.13375 29658 ft 426 kts 35°
2026-04-16 22:10 36.38587 0.15568 30105 ft 429 kts 35°
2026-04-16 22:10 36.40990 0.17785 30491 ft 432 kts 35°
2026-04-16 22:10 36.43400 0.20027 30893 ft 433 kts 35°
2026-04-16 22:11 36.45801 0.22278 31382 ft 432 kts 35°
2026-04-16 22:11 36.48191 0.24532 31885 ft 431 kts 35°
2026-04-16 22:11 36.50575 0.26788 32333 ft 431 kts 34°
2026-04-16 22:11 36.52958 0.29048 32764 ft 431 kts 34°
2026-04-16 22:12 36.55344 0.31314 33209 ft 430 kts 34°
2026-04-16 22:12 36.57716 0.33568 33647 ft 430 kts 34°
2026-04-16 22:12 36.60091 0.35827 34057 ft 430 kts 34°
2026-04-16 22:12 36.62467 0.38088 34414 ft 429 kts 34°
2026-04-16 22:13 36.64831 0.40340 34884 ft 426 kts 34°
2026-04-16 22:13 36.67176 0.42576 35295 ft 423 kts 33°
2026-04-16 22:13 36.69515 0.44806 35586 ft 424 kts 33°
2026-04-16 22:13 36.71830 0.47015 35838 ft 425 kts 33°
2026-04-16 22:14 36.74180 0.49259 36102 ft 426 kts 33°
2026-04-16 22:14 36.76544 0.51516 36194 ft 430 kts 33°
2026-04-16 22:14 36.81292 0.56060 36193 ft 429 kts 33°
2026-04-16 22:15 36.85981 0.60559 36200 ft 423 kts 33°
2026-04-16 22:15 36.90650 0.65041 36206 ft 424 kts 33°
2026-04-16 22:16 36.95325 0.69535 36201 ft 424 kts 33°
2026-04-16 22:16 37.00004 0.74041 36204 ft 425 kts 34°
2026-04-16 22:17 37.04687 0.78558 36214 ft 425 kts 34°
2026-04-16 22:17 37.09371 0.83084 36203 ft 426 kts 34°
2026-04-16 22:18 37.14033 0.87596 36203 ft 426 kts 34°
2026-04-16 22:18 37.18722 0.92142 36203 ft 426 kts 34°
2026-04-16 22:19 37.23403 0.96687 36213 ft 425 kts 34°
2026-04-16 22:19 37.28081 1.01236 36203 ft 425 kts 34°
2026-04-16 22:20 37.32754 1.05788 36201 ft 425 kts 34°
2026-04-16 22:20 37.37414 1.10335 36201 ft 424 kts 34°
2026-04-16 22:21 37.42072 1.14887 36214 ft 423 kts 34°
2026-04-16 22:21 37.46719 1.19436 36204 ft 423 kts 35°
2026-04-16 22:22 37.51361 1.23987 36204 ft 423 kts 35°
2026-04-16 22:22 37.56002 1.28544 36206 ft 422 kts 35°
2026-04-16 22:23 37.60631 1.33098 36206 ft 422 kts 35°
2026-04-16 22:23 37.65235 1.37633 36207 ft 422 kts 35°
2026-04-16 22:24 37.69860 1.42198 36207 ft 422 kts 35°
2026-04-16 22:24 37.74482 1.46765 36209 ft 422 kts 35°
2026-04-16 22:25 37.79368 1.50791 36211 ft 419 kts 27°
2026-04-16 22:25 37.84407 1.54433 36215 ft 419 kts 27°
2026-04-16 22:26 37.89465 1.58126 36202 ft 419 kts 28°
2026-04-16 22:26 37.94504 1.61867 36209 ft 420 kts 28°
2026-04-16 22:27 37.99534 1.65626 36209 ft 420 kts 28°
2026-04-16 22:27 38.04563 1.69391 36208 ft 420 kts 28°
2026-04-16 22:28 38.09594 1.73162 36202 ft 420 kts 28°
2026-04-16 22:28 38.14622 1.76936 36205 ft 420 kts 28°
2026-04-16 22:29 38.19653 1.80714 36208 ft 420 kts 28°
2026-04-16 22:29 38.24647 1.84471 36210 ft 420 kts 28°
2026-04-16 22:30 38.29673 1.88258 36210 ft 420 kts 28°
2026-04-16 22:30 38.34697 1.92050 36217 ft 420 kts 28°
2026-04-16 22:31 38.39728 1.95859 36203 ft 420 kts 28°
2026-04-16 22:31 38.44752 1.99670 36207 ft 420 kts 28°
2026-04-16 22:32 38.49769 2.03483 36207 ft 419 kts 29°
2026-04-16 22:32 38.54775 2.07294 36204 ft 419 kts 29°
2026-04-16 22:33 38.59783 2.11112 36205 ft 419 kts 29°
2026-04-16 22:33 38.64782 2.14929 36210 ft 418 kts 29°
2026-04-16 22:34 38.69781 2.18748 36206 ft 418 kts 29°
2026-04-16 22:34 38.74781 2.22567 36202 ft 418 kts 29°
2026-04-16 22:35 38.79746 2.26369 36204 ft 418 kts 29°
2026-04-16 22:35 38.84735 2.30200 36218 ft 418 kts 29°
2026-04-16 22:36 38.89720 2.34035 36203 ft 418 kts 29°
2026-04-16 22:36 38.94700 2.37872 36204 ft 417 kts 29°
2026-04-16 22:37 38.99676 2.41712 36203 ft 417 kts 29°
2026-04-16 22:37 39.04643 2.45552 36205 ft 417 kts 29°
2026-04-16 22:38 39.09608 2.49397 36204 ft 416 kts 29°
2026-04-16 22:38 39.14570 2.53245 36204 ft 416 kts 29°
2026-04-16 22:39 39.18695 2.56450 36201 ft 416 kts 29°
2026-04-16 22:39 39.23654 2.60307 36201 ft 416 kts 30°
2026-04-16 22:40 39.28614 2.64172 36200 ft 417 kts 30°
2026-04-16 22:40 39.33578 2.68048 36210 ft 417 kts 30°
2026-04-16 22:41 39.38540 2.71928 36203 ft 417 kts 30°
2026-04-16 22:41 39.43449 2.75910 36194 ft 417 kts 35°
2026-04-16 22:42 39.47684 2.81074 36213 ft 419 kts 43°
2026-04-16 22:42 39.51758 2.86474 36201 ft 419 kts 44°
2026-04-16 22:43 39.55694 2.91675 36201 ft 419 kts 43°
2026-04-16 22:43 39.59812 2.97084 36199 ft 419 kts 43°
2026-04-16 22:44 39.63911 3.02461 36205 ft 419 kts 43°
2026-04-16 22:44 39.68006 3.07836 36210 ft 419 kts 43°
2026-04-16 22:45 39.72099 3.13221 36209 ft 418 kts 43°
2026-04-16 22:45 39.76179 3.18596 36200 ft 417 kts 43°
2026-04-16 22:46 39.80243 3.23963 36199 ft 416 kts 43°
2026-04-16 22:46 39.84304 3.29333 36196 ft 415 kts 43°
2026-04-16 22:47 39.88345 3.34687 36200 ft 415 kts 43°
2026-04-16 22:47 39.92388 3.40053 36196 ft 414 kts 43°
2026-04-16 22:48 39.96422 3.45417 36198 ft 414 kts 43°
2026-04-16 22:48 40.00456 3.50791 36195 ft 415 kts 43°
2026-04-16 22:49 40.04494 3.56179 36195 ft 415 kts 43°
2026-04-16 22:49 40.08534 3.61579 36197 ft 416 kts 43°
2026-04-16 22:50 40.12573 3.66989 36191 ft 416 kts 44°
2026-04-16 22:50 40.16615 3.72413 36195 ft 417 kts 44°
2026-04-16 22:51 40.20663 3.77853 36193 ft 417 kts 44°
2026-04-16 22:51 40.24684 3.83269 36198 ft 418 kts 44°
2026-04-16 22:52 40.28732 3.88731 36188 ft 418 kts 44°
2026-04-16 22:52 40.32771 3.94189 36183 ft 417 kts 44°
2026-04-16 22:53 40.36802 3.99648 36184 ft 416 kts 44°
2026-04-16 22:53 40.40823 4.05102 36182 ft 415 kts 44°
2026-04-16 22:54 40.44826 4.10543 36184 ft 415 kts 44°
2026-04-16 22:54 40.48830 4.15994 36185 ft 414 kts 44°
2026-04-16 22:55 40.52834 4.21455 36197 ft 414 kts 44°
2026-04-16 22:55 40.56826 4.26911 36182 ft 414 kts 44°
2026-04-16 22:56 40.60818 4.32376 36180 ft 414 kts 44°
2026-04-16 22:56 40.64798 4.37835 36179 ft 413 kts 44°
2026-04-16 22:57 40.68777 4.43303 36174 ft 413 kts 44°
2026-04-16 22:57 40.72746 4.48767 36174 ft 412 kts 44°
2026-04-16 22:58 40.76709 4.54233 36175 ft 412 kts 44°
2026-04-16 22:58 40.80671 4.59708 36189 ft 412 kts 44°
2026-04-16 22:59 40.84633 4.65191 36171 ft 412 kts 44°
2026-04-16 22:59 40.88687 4.70453 36173 ft 411 kts 40°
2026-04-16 23:00 40.92914 4.75521 36171 ft 410 kts 40°
2026-04-16 23:00 40.97142 4.80584 36170 ft 410 kts 40°
2026-04-16 23:01 41.01359 4.85684 36169 ft 410 kts 40°
2026-04-16 23:01 41.05560 4.90799 36166 ft 410 kts 40°
2026-04-16 23:02 41.09759 4.95929 36179 ft 411 kts 40°
2026-04-16 23:02 41.13960 5.01071 36167 ft 411 kts 40°
2026-04-16 23:03 41.18161 5.06221 36165 ft 411 kts 40°
2026-04-16 23:03 41.22360 5.11379 36166 ft 411 kts 40°
2026-04-16 23:04 41.26560 5.16547 36160 ft 412 kts 40°
2026-04-16 23:04 41.30761 5.21726 36167 ft 412 kts 40°
2026-04-16 23:05 41.34961 5.26914 36164 ft 412 kts 41°
2026-04-16 23:05 41.39167 5.32118 36164 ft 413 kts 41°
2026-04-16 23:06 41.43368 5.37327 36166 ft 413 kts 41°
2026-04-16 23:06 41.47574 5.42550 36163 ft 413 kts 41°
2026-04-16 23:07 41.51741 5.47735 36158 ft 412 kts 41°
2026-04-16 23:07 41.55936 5.52964 36157 ft 412 kts 41°
2026-04-16 23:08 41.60121 5.58191 36157 ft 412 kts 41°
2026-04-16 23:08 41.64303 5.63424 36157 ft 412 kts 41°
2026-04-16 23:09 41.68479 5.68659 36160 ft 412 kts 41°
2026-04-16 23:09 41.72658 5.73908 36168 ft 412 kts 41°
2026-04-16 23:10 41.76836 5.79164 36157 ft 412 kts 41°
2026-04-16 23:10 41.81007 5.84422 36159 ft 412 kts 41°
2026-04-16 23:11 41.85184 5.89698 36149 ft 412 kts 41°
2026-04-16 23:11 41.89356 5.94978 36156 ft 412 kts 41°
2026-04-16 23:12 41.93524 6.00262 36152 ft 412 kts 41°
2026-04-16 23:12 41.97695 6.05559 36158 ft 412 kts 41°
2026-04-16 23:13 42.01863 6.10864 36163 ft 412 kts 41°
2026-04-16 23:13 42.06027 6.16173 36145 ft 412 kts 41°
2026-04-16 23:14 42.10187 6.21487 36152 ft 412 kts 41°
2026-04-16 23:14 42.14314 6.26770 36151 ft 412 kts 41°
2026-04-16 23:15 42.20542 6.34759 36148 ft 412 kts 41°
2026-04-16 23:16 42.24689 6.40093 36135 ft 412 kts 41°
2026-04-16 23:16 42.28832 6.45432 36139 ft 412 kts 41°
2026-04-16 23:17 42.32977 6.50783 36139 ft 413 kts 41°
2026-04-16 23:17 42.37142 6.56122 36137 ft 412 kts 38°
2026-04-16 23:18 42.41881 6.60374 36144 ft 409 kts 29°
2026-04-16 23:18 42.46798 6.64247 36134 ft 409 kts 28°
2026-04-16 23:19 42.51703 6.68138 36140 ft 409 kts 29°
2026-04-16 23:19 42.56613 6.72073 36135 ft 409 kts 29°
2026-04-16 23:20 42.61515 6.76024 36134 ft 410 kts 29°
2026-04-16 23:20 42.66411 6.79980 36137 ft 410 kts 29°
2026-04-16 23:21 42.71280 6.83922 36134 ft 410 kts 29°
2026-04-16 23:21 42.76179 6.87895 36145 ft 410 kts 29°
2026-04-16 23:22 42.81073 6.91872 36139 ft 409 kts 29°
2026-04-16 23:22 42.85965 6.95854 36137 ft 409 kts 29°
2026-04-16 23:23 42.90849 6.99836 36138 ft 409 kts 29°
2026-04-16 23:23 42.95725 7.03820 36139 ft 408 kts 29°
2026-04-16 23:24 43.00603 7.07813 36142 ft 408 kts 29°
2026-04-16 23:24 43.05442 7.11782 36138 ft 409 kts 29°
2026-04-16 23:25 43.10322 7.15791 36136 ft 409 kts 29°
2026-04-16 23:25 43.15212 7.19817 36132 ft 410 kts 29°
2026-04-16 23:26 43.19308 7.23194 36129 ft 411 kts 29°
2026-04-16 23:26 43.24173 7.27213 36131 ft 411 kts 29°
2026-04-16 23:27 43.29074 7.31269 36127 ft 412 kts 29°
2026-04-16 23:27 43.33983 7.35340 36126 ft 412 kts 29°
2026-04-16 23:28 43.38896 7.39421 36124 ft 413 kts 29°
2026-04-16 23:28 43.43813 7.43514 36124 ft 413 kts 29°
2026-04-16 23:29 43.48738 7.47621 36123 ft 414 kts 29°
2026-04-16 23:29 43.53666 7.51739 36123 ft 415 kts 29°
2026-04-16 23:30 43.58596 7.55866 36129 ft 415 kts 29°
2026-04-16 23:30 43.63534 7.60009 36140 ft 415 kts 29°
2026-04-16 23:31 43.68468 7.64157 36133 ft 415 kts 29°
2026-04-16 23:31 43.73404 7.68314 36131 ft 415 kts 29°
2026-04-16 23:32 43.78324 7.72465 36136 ft 414 kts 29°
2026-04-16 23:32 43.83326 7.76365 36137 ft 411 kts 20°
2026-04-16 23:33 43.88659 7.79183 36149 ft 410 kts 18°
2026-04-16 23:33 43.94011 7.81941 36152 ft 410 kts 19°
2026-04-16 23:34 43.99356 7.84733 36169 ft 411 kts 19°
2026-04-16 23:34 44.04674 7.87543 36175 ft 412 kts 19°
2026-04-16 23:35 44.10041 7.90395 36157 ft 413 kts 19°
2026-04-16 23:35 44.15404 7.93251 36170 ft 413 kts 19°
2026-04-16 23:36 44.20783 7.96122 36173 ft 414 kts 19°
2026-04-16 23:36 44.26165 7.99000 36165 ft 414 kts 19°
2026-04-16 23:37 44.31538 8.01879 36174 ft 414 kts 19°
2026-04-16 23:37 44.36920 8.04767 36168 ft 414 kts 19°
2026-04-16 23:38 44.42268 8.07643 36174 ft 414 kts 19°
2026-04-16 23:38 44.47645 8.10541 36164 ft 414 kts 19°
2026-04-16 23:39 44.52969 8.13416 36164 ft 414 kts 19°
2026-04-16 23:39 44.58338 8.16320 36163 ft 413 kts 19°
2026-04-16 23:40 44.63719 8.19237 36168 ft 414 kts 19°
2026-04-16 23:40 44.69085 8.22152 36164 ft 414 kts 19°
2026-04-16 23:41 44.74458 8.25076 36153 ft 414 kts 19°
2026-04-16 23:41 44.79832 8.28006 36155 ft 414 kts 19°
2026-04-16 23:42 44.85170 8.30923 36159 ft 414 kts 19°
2026-04-16 23:42 44.90534 8.33860 36153 ft 414 kts 18°
2026-04-16 23:43 44.95915 8.36812 36154 ft 414 kts 18°
2026-04-16 23:43 45.01284 8.39764 36153 ft 414 kts 19°
2026-04-16 23:44 45.06658 8.42724 36152 ft 414 kts 19°
2026-04-16 23:44 45.12032 8.45690 36162 ft 415 kts 18°
2026-04-16 23:45 45.17410 8.48664 36170 ft 415 kts 19°
2026-04-16 23:45 45.22778 8.51639 36159 ft 415 kts 19°
2026-04-16 23:46 45.28155 8.54626 36158 ft 414 kts 18°
2026-04-16 23:46 45.33514 8.57608 36156 ft 414 kts 18°
2026-04-16 23:47 45.38881 8.60600 36158 ft 414 kts 18°
2026-04-16 23:47 45.44235 8.63592 36158 ft 413 kts 19°
2026-04-16 23:48 45.49593 8.66592 36158 ft 414 kts 18°
2026-04-16 23:48 45.54919 8.69580 36158 ft 414 kts 18°
2026-04-16 23:49 45.60276 8.72590 36186 ft 414 kts 18°
2026-04-16 23:49 45.65647 8.75616 36188 ft 414 kts 18°
2026-04-16 23:50 45.71015 8.78647 36173 ft 415 kts 18°
2026-04-16 23:50 45.76387 8.81686 36179 ft 415 kts 18°
2026-04-16 23:51 45.81755 8.84728 36177 ft 416 kts 18°
2026-04-16 23:51 45.87134 8.87784 36192 ft 416 kts 18°
2026-04-16 23:52 45.92515 8.90847 36179 ft 416 kts 18°
2026-04-16 23:52 45.97899 8.93918 36187 ft 417 kts 18°
2026-04-16 23:53 46.03258 8.96982 36191 ft 417 kts 18°
2026-04-16 23:53 46.08643 9.00067 36183 ft 417 kts 18°
2026-04-16 23:54 46.14061 9.03008 36175 ft 414 kts 11°
2026-04-16 23:54 46.19713 9.03889 36182 ft 407 kts 353°
2026-04-16 23:55 46.25337 9.03112 36185 ft 406 kts 351°
2026-04-16 23:55 46.30956 9.02285 36184 ft 406 kts 351°
2026-04-16 23:56 46.36563 9.01513 36206 ft 403 kts 352°
2026-04-16 23:56 46.42168 9.00766 36205 ft 405 kts 352°
2026-04-16 23:57 46.47752 9.00020 36200 ft 402 kts 352°
2026-04-16 23:57 46.53334 8.99272 36205 ft 404 kts 352°
2026-04-16 23:58 46.58940 8.98501 36161 ft 405 kts 351°
2026-04-16 23:58 46.64534 8.97738 36226 ft 404 kts 352°
2026-04-16 23:59 46.70145 8.97001 36205 ft 406 kts 352°
2026-04-16 23:59 46.75744 8.96245 36162 ft 406 kts 352°
2026-04-17 00:00 46.81357 8.95481 36220 ft 406 kts 351°
2026-04-17 00:00 46.86997 8.94710 36206 ft 409 kts 351°
2026-04-17 00:01 46.92679 8.93933 36205 ft 409 kts 351°
2026-04-17 00:01 46.98335 8.93156 36231 ft 409 kts 351°
2026-04-17 00:02 47.03996 8.92376 36211 ft 408 kts 351°
2026-04-17 00:02 47.09649 8.91596 36227 ft 408 kts 351°
2026-04-17 00:03 47.15283 8.90817 36227 ft 406 kts 351°
2026-04-17 00:03 47.20915 8.90036 36223 ft 406 kts 351°
2026-04-17 00:04 47.26536 8.89321 36246 ft 407 kts 356°
2026-04-17 00:04 47.29340 8.89549 35899 ft 414 kts
2026-04-17 00:04 47.32209 8.90440 35312 ft 418 kts 13°
2026-04-17 00:04 47.34964 8.91842 34649 ft 420 kts 15°
2026-04-17 00:05 47.37708 8.93335 34044 ft 419 kts 15°
2026-04-17 00:05 47.40429 8.94792 33497 ft 414 kts 15°
2026-04-17 00:05 47.43096 8.96182 33004 ft 409 kts 14°
2026-04-17 00:05 47.45771 8.97559 32528 ft 405 kts 14°
2026-04-17 00:06 47.48449 8.98938 32046 ft 401 kts 14°
2026-04-17 00:06 47.51072 9.00290 31569 ft 397 kts 14°
2026-04-17 00:06 47.53634 9.01612 31132 ft 394 kts 14°
2026-04-17 00:06 47.56208 9.02943 30685 ft 391 kts 14°
2026-04-17 00:07 47.58798 9.04283 30226 ft 388 kts 14°
2026-04-17 00:07 47.61298 9.05578 29718 ft 384 kts 14°
2026-04-17 00:07 47.63811 9.06882 29265 ft 380 kts 14°
2026-04-17 00:07 47.66288 9.08169 28817 ft 376 kts 14°
2026-04-17 00:08 47.68743 9.09445 28343 ft 372 kts 14°
2026-04-17 00:08 47.71181 9.10640 27891 ft 366 kts 10°
2026-04-17 00:08 47.73697 9.11282 27430 ft 359 kts
2026-04-17 00:08 47.76135 9.11645 26999 ft 355 kts
2026-04-17 00:09 47.78586 9.12013 26569 ft 353 kts
2026-04-17 00:09 47.81019 9.12385 26121 ft 351 kts
2026-04-17 00:09 47.83444 9.12765 25675 ft 349 kts
2026-04-17 00:09 47.85859 9.13161 25191 ft 349 kts
2026-04-17 00:10 47.88267 9.13566 24768 ft 347 kts
2026-04-17 00:10 47.90664 9.13969 24343 ft 346 kts
2026-04-17 00:10 47.93048 9.14365 23916 ft 344 kts
2026-04-17 00:10 47.95428 9.14759 23431 ft 343 kts
2026-04-17 00:11 47.97789 9.15150 22977 ft 340 kts
2026-04-17 00:11 48.00135 9.15539 22549 ft 337 kts
2026-04-17 00:11 48.02459 9.15925 22136 ft 334 kts
2026-04-17 00:11 48.04763 9.16308 21714 ft 332 kts
2026-04-17 00:12 48.07061 9.16688 21213 ft 332 kts
2026-04-17 00:12 48.09354 9.17067 20792 ft 330 kts
2026-04-17 00:12 48.11634 9.17444 20378 ft 329 kts
2026-04-17 00:12 48.13903 9.17819 19969 ft 327 kts
2026-04-17 00:13 48.16161 9.18194 19566 ft 326 kts
2026-04-17 00:13 48.18420 9.18568 18997 ft 330 kts
2026-04-17 00:13 48.19935 9.18820 18689 ft 330 kts
2026-04-17 00:13 48.22220 9.19215 18186 ft 331 kts
2026-04-17 00:14 48.24428 9.20204 17733 ft 333 kts 21°
2026-04-17 00:14 48.26418 9.21981 17289 ft 335 kts 36°
2026-04-17 00:14 48.28170 9.24290 16882 ft 333 kts 39°
2026-04-17 00:14 48.29869 9.26641 16460 ft 331 kts 40°
2026-04-17 00:15 48.31566 9.28963 16035 ft 329 kts 39°
2026-04-17 00:15 48.33263 9.31258 15642 ft 327 kts 39°
2026-04-17 00:15 48.34957 9.33520 15241 ft 324 kts 37°
2026-04-17 00:15 48.36900 9.35103 14836 ft 316 kts 13°
2026-04-17 00:16 48.39048 9.35440 14451 ft 310 kts 352°
2026-04-17 00:16 48.41162 9.34901 14053 ft 307 kts 346°
2026-04-17 00:16 48.43249 9.34218 13599 ft 305 kts 346°
2026-04-17 00:16 48.45314 9.33522 13190 ft 304 kts 346°
2026-04-17 00:17 48.47369 9.32835 12782 ft 301 kts 346°
2026-04-17 00:17 48.49411 9.32162 12378 ft 300 kts 347°
2026-04-17 00:17 48.51451 9.31498 11959 ft 300 kts 347°
2026-04-17 00:17 48.53489 9.30840 11553 ft 298 kts 347°
2026-04-17 00:18 48.55515 9.30189 11168 ft 297 kts 347°
2026-04-17 00:18 48.57530 9.29543 10788 ft 295 kts 347°
2026-04-17 00:18 48.59533 9.28901 10487 ft 291 kts 348°
2026-04-17 00:18 48.61454 9.28285 10360 ft 281 kts 348°
2026-04-17 00:19 48.63333 9.27683 10209 ft 273 kts 348°
2026-04-17 00:19 48.65187 9.27088 9861 ft 272 kts 348°
2026-04-17 00:19 48.66952 9.26123 9504 ft 271 kts 326°
2026-04-17 00:19 48.68190 9.24033 9175 ft 269 kts 297°
2026-04-17 00:20 48.68651 9.21271 8647 ft 275 kts 270°
2026-04-17 00:20 48.68356 9.18430 8287 ft 275 kts 254°
2026-04-17 00:20 48.67820 9.15659 7946 ft 273 kts 253°
2026-04-17 00:20 48.67269 9.12915 7613 ft 272 kts 253°
2026-04-17 00:21 48.66724 9.10179 7276 ft 271 kts 253°
2026-04-17 00:21 48.66181 9.07411 6787 ft 276 kts 253°
2026-04-17 00:21 48.65641 9.04625 6492 ft 273 kts 253°
2026-04-17 00:21 48.65122 9.01923 6357 ft 264 kts 253°
2026-04-17 00:22 48.64131 8.96767 6107 ft 246 kts 253°
2026-04-17 00:22 48.63607 8.94356 5988 ft 237 kts 242°
2026-04-17 00:22 48.62482 8.92684 5917 ft 224 kts 204°
2026-04-17 00:23 48.61004 8.92302 5814 ft 213 kts 172°
2026-04-17 00:23 48.59646 8.93057 5610 ft 207 kts 143°
2026-04-17 00:23 48.58719 8.94669 5380 ft 205 kts 114°
2026-04-17 00:23 48.58385 8.96708 5188 ft 198 kts 90°
2026-04-17 00:24 48.58801 8.98602 4848 ft 194 kts 47°
2026-04-17 00:24 48.60011 8.99381 4463 ft 190 kts
2026-04-17 00:24 48.61266 8.99455 4274 ft 171 kts
2026-04-17 00:24 48.62426 8.99666 4179 ft 169 kts
2026-04-17 00:25 48.63587 8.99564 4050 ft 166 kts 352°
2026-04-17 00:25 48.64664 8.99812 3963 ft 152 kts 38°
2026-04-17 00:25 48.65073 9.01118 3892 ft 137 kts 86°
2026-04-17 00:25 48.65259 9.02487 3701 ft 133 kts 70°
2026-04-17 00:26 48.65541 9.03833 3526 ft 133 kts 76°
2026-04-17 00:26 48.65777 9.05170 3331 ft 134 kts 75°
2026-04-17 00:26 48.66030 9.06541 3150 ft 133 kts 75°
2026-04-17 00:26 48.66279 9.07867 2970 ft 132 kts 75°
2026-04-17 00:27 48.66530 9.09203 2793 ft 132 kts 74°
2026-04-17 00:27 48.66787 9.10558 2608 ft 137 kts 73°
2026-04-17 00:27 48.67059 9.11955 2437 ft 140 kts 73°
2026-04-17 00:27 48.67330 9.13374 2251 ft 141 kts 73°
2026-04-17 00:28 48.67602 9.14805 2033 ft 142 kts 73°
2026-04-17 00:28 48.67866 9.16232 1840 ft 140 kts 73°
2026-04-17 00:28 48.68122 9.17632 1625 ft 136 kts 73°
2026-04-17 00:28 48.68384 9.18986 1428 ft 133 kts 73°
2026-04-17 00:29 48.68632 9.20319 1294 ft 129 kts 74°
2026-04-17 00:29 48.68861 9.21536 1258 ft 107 kts 74°
2026-04-17 00:29 48.69035 9.22448 1228 ft 74 kts 74°
2026-04-17 00:29 48.69148 9.23052 1215 ft 38 kts 74°
2026-04-17 00:30 48.69221 9.23213 1212 ft 14 kts 359°
2026-04-17 00:30 48.69315 9.23177 1218 ft 14 kts 344°
2026-04-17 00:30 48.69394 9.23111 1223 ft 13 kts 307°
2026-04-17 00:30 48.69402 9.22983 1225 ft 16 kts 243°
2026-04-17 00:31 48.69365 9.22810 1228 ft 18 kts 253°
2026-04-17 00:31 48.69318 9.22562 1234 ft 32 kts 254°
2026-04-17 00:31 48.69266 9.22283 1240 ft 26 kts 256°
2026-04-17 00:31 48.69218 9.22032 1251 ft 24 kts 253°
2026-04-17 00:32 48.69171 9.21787 1257 ft 25 kts 254°
2026-04-17 00:32 48.69126 9.21546 1260 ft 26 kts 254°
2026-04-17 00:32 48.69072 9.21261 1266 ft 30 kts 254°
2026-04-17 00:32 48.69021 9.20987 1270 ft 27 kts 255°
2026-04-17 00:33 48.68981 9.20770 1275 ft 19 kts 254°
2026-04-17 00:33 48.68985 9.20595 1281 ft 14 kts 329°
2026-04-17 00:33 48.69057 9.20476 1287 ft 17 kts 304°
2026-04-17 00:33 48.69053 9.20392 1290 ft 8 kts 250°
2026-04-17 00:34 48.69022 9.20333 1291 ft 10 kts 176°
2026-04-17 00:34 48.68978 9.20351 1289 ft 7 kts 164°
2026-04-17 00:34 48.68972 9.20352 1289 ft 0 kts 174°
2026-04-17 00:34 48.68974 9.20353 1289 ft 1 kts 167°
2026-04-17 00:35 48.68972 9.20353 1289 ft 0 kts 166°